[[{"header":{"parameterUnit":"m.s-1","parameterCategory":2,"la1":30.2991,"la2":30.254,"lo1":-89.0895,"lo2":-89.0444,"dy":0.0017,"dx":0.0017,"nx":28,"ny":28,"refTime":"2024-08-26T21:00:00:Z","depth":"0","parameterNumber":2,"parameterNumberName":"U-component_of_CURRENTS"},"data":[0,0,0,0,0,0,0,0,0,0,0,0,0,0,0,0,0,0,0,0,0,0,0,0,0,0,0,0,0,0,0,0,0,0,0,0,0,0,0,0,0,0,0,0,0,0,0,0,0,0,0,0,0,0,0,0,0,0,0.2919,0.292,0,0.2995,0.2995,0.2996,0.302,0.302,0.302,0.302,0.302,0.302,0.302,0,0,0,0,0,0,0,0,0,0,0,0,0,0.2791,0.2793,0.2919,0.2921,0.2922,0.2995,0.2995,0.2996,0.302,0.302,0.302,0.302,0.302,0.302,0.302,0,0,0,0,0,0,0,0,0,0,0,0,0,0.2851,0.2794,0.2919,0.2946,0.2949,0.2995,0.2995,0.2996,0.302,0.302,0.302,0.302,0.302,0.302,0.302,0.3018,0,0,0.3019,0.3019,0,0,0,0,0,0,0,0,0.2847,0.2855,0.2941,0.2944,0.2948,0.3002,0.2951,0.3001,0.302,0.2989,0.302,0.302,0.301,0.301,0.3019,0.3018,0.3018,0.3019,0.3019,0.3019,0.3019,0,0,0,0,0,0,0,0.2843,0.2852,0.2945,0.2942,0.2947,0.2953,0.2961,0.296,0.2993,0.2991,0.2994,0.301,0.3011,0.3019,0.3019,0.3018,0.3019,0.3019,0.3019,0.3019,0.3088,0.309,0,0,0,0,0,0,0.2843,0.2848,0.2942,0.2947,0.2902,0.2956,0.2964,0.2981,0.2995,0.2999,0.301,0.3011,0.302,0.3019,0.3019,0.3055,0.3019,0.3019,0.3019,0.3086,0.3088,0.309,0,0,0,0,0,0,0.284,0.2851,0.2939,0.2903,0.2915,0.2958,0.2976,0.2983,0.299,0.301,0.3012,0.3011,0.302,0.3019,0.3037,0.3054,0.3019,0.3019,0.3084,0.3087,0.3089,0.3103,0,0,0,0,0,0,0.2836,0.2849,0.2857,0.2903,0.2917,0.2974,0.2977,0.2984,0.3002,0.3003,0.3012,0.3012,0.302,0.3038,0.3037,0.3053,0.3019,0.3081,0.3085,0.3088,0.31,0.3106,0.3111,0,0,0,0,0,0.2831,0.2847,0.2856,0.2868,0.2928,0.2975,0.2982,0.301,0.3002,0.3013,0.3026,0.3012,0.306,0.3039,0.3038,0.3054,0.308,0.3084,0.3088,0.3098,0.3105,0.311,0,0,0,0,0,0,0.2792,0.2853,0.2864,0.2896,0.2935,0.2981,0.2997,0.3005,0.3023,0.3022,0.3025,0.3027,0.306,0.3056,0.3032,0.309,0.3072,0.3076,0.3079,0.3086,0.3091,0.3139,0.3019,0,0,0,0,0,0.2788,0.2818,0.2871,0.2895,0.2916,0.295,0.2969,0.2989,0.3016,0.3023,0.3034,0.3051,0.3078,0.3078,0.3106,0.3116,0.3187,0.3133,0.3138,0.3142,0.3185,0.3342,0.3366,0.3104,0.3104,0.3104,0,0,0.2777,0.2817,0.2831,0.2889,0.2919,0.2957,0.296,0.2997,0.3027,0.3019,0.3054,0.3071,0.309,0.3125,0.3137,0.3117,0.3245,0.3148,0.3151,0.3192,0.3349,0.3375,0.3398,0.3107,0.3106,0.3106,0,0,0.2774,0.2808,0.2831,0.287,0.2926,0.2959,0.2967,0.3016,0.3035,0.307,0.3086,0.3126,0.3136,0.3178,0.3191,0.3242,0.3279,0.3229,0.3277,0.3428,0.3451,0.3473,0.3553,0.3582,0.3218,0.3218,0.3218,0,0.2754,0.2804,0.2842,0.288,0.2921,0.2958,0.2995,0.3024,0.3072,0.311,0.3087,0.3184,0.3179,0.3257,0.3271,0.3256,0.3329,0.324,0.3437,0.3461,0.3483,0.356,0.3592,0.3219,0.3219,0.3219,0.3219,0,0.2778,0.2818,0.2839,0.2905,0.2945,0.2991,0.3045,0.3085,0.3109,0.3154,0.324,0.326,0.3333,0.3317,0.3299,0.344,0.3434,0.3435,0.3421,0.3511,0.3584,0.3618,0.3221,0.322,0.322,0.322,0,0,0.2742,0.2835,0.2845,0.2896,0.2971,0.3021,0.3072,0.316,0.3232,0.3269,0.3373,0.3405,0.3444,0.3467,0.3461,0.3557,0.3732,0.3554,0.3561,0.3632,0.4036,0.3976,0.4005,0.3775,0.3782,0.3787,0.4007,0,0.2754,0.2841,0.2874,0.2962,0.3026,0.308,0.3143,0.3224,0.3289,0.3399,0.3451,0.3542,0.3491,0.3531,0.3629,0.3721,0.3829,0.367,0.3941,0.3949,0.3886,0.4047,0.392,0.4103,0.404,0.4045,0.4049,0,0.2778,0.2847,0.2933,0.3049,0.3078,0.3128,0.3274,0.333,0.3472,0.3525,0.3631,0.3683,0.3815,0.3767,0.4006,0.391,0.3995,0.4051,0.4062,0.404,0.3954,0.4015,0.4166,0.4002,0.4101,0.4097,0.4093,0,0.2803,0.2893,0.2975,0.3015,0.3139,0.3191,0.3255,0.3384,0.344,0.3625,0.3689,0.3868,0.3945,0.4117,0.4198,0.4143,0.4463,0.4405,0.4433,0.4425,0.4392,0.4371,0.4427,0.4634,0.4634,0.4633,0.4633,0,0.2845,0.2919,0.2999,0.3063,0.3157,0.3235,0.3339,0.343,0.3553,0.3639,0.3762,0.3858,0.4047,0.4209,0.4304,0.4472,0.4566,0.4505,0.452,0.4383,0.436,0.4273,0.42,0.4641,0.4639,0.4638,0.4636,0,0.2894,0.2943,0.3043,0.3154,0.3179,0.3258,0.3333,0.3405,0.3532,0.3649,0.3705,0.3896,0.4115,0.4276,0.4548,0.4582,0.4638,0.4792,0.4576,0.4563,0.4402,0.4335,0.4339,0.4207,0.4888,0.4888,0.4889,0,0.2945,0.3,0.3085,0.3097,0.3144,0.323,0.3268,0.3388,0.3441,0.3651,0.3703,0.3944,0.4085,0.4441,0.4609,0.4825,0.4652,0.4792,0.4675,0.4433,0.4373,0.4168,0.404,0.4617,0.4615,0.4613,0.4612,0,0.3013,0.3024,0.3067,0.3092,0.3123,0.3161,0.3224,0.3261,0.3405,0.3505,0.3659,0.3801,0.4142,0.4324,0.4601,0.4707,0.4545,0.4764,0.4618,0.4278,0.3967,0.3829,0.4368,0.4598,0.46,0.4601,0.4602,0.4602,0.3014,0.3019,0.3019,0.3039,0.3057,0.3065,0.3053,0.3127,0.3203,0.3323,0.3547,0.3721,0.405,0.4429,0.4478,0.4487,0.4459,0.4405,0.4379,0.4217,0.399,0.4461,0.4633,0.4634,0.4636,0.4637,0.4638,0,0.2961,0.294,0.295,0.2931,0.29,0.2953,0.2977,0.2941,0.2972,0.319,0.3322,0.3677,0.3873,0.4081,0.4259,0.4141,0.3936,0.4021,0.3712,0.3631,0.4172,0.4055,0.3983,0.3983,0.3983,0.3983,0.3984,0.3984,0.2914,0.2862,0.2854,0.2763,0.2744,0.2653,0.2638,0.2629,0.2728,0.2887,0.3082,0.3332,0.3691,0.3929,0.3868,0.379,0.3465,0.3357,0.3291,0.3666,0.3696,0.3726,0.3597,0.343,0.343,0.2598,0.2592,0.2587]},{"header":{"parameterUnit":"m.s-1","parameterCategory":2,"la1":30.2991,"la2":30.254,"lo1":-89.0895,"lo2":-89.0444,"dy":0.0017,"dx":0.0017,"nx":28,"ny":28,"refTime":"2024-08-26T21:00:00:Z","depth":"0","parameterNumber":3,"parameterNumberName":"V-component_of_CURRENTS"},"data":[0,0,0,0,0,0,0,0,0,0,0,0,0,0,0,0,0,0,0,0,0,0,0,0,0,0,0,0,0,0,0,0,0,0,0,0,0,0,0,0,0,0,0,0,0,0,0,0,0,0,0,0,0,0,0,0,0,0,-0.0202,-0.0202,0,-0.0237,-0.0237,-0.0238,-0.0285,-0.0286,-0.0287,-0.0288,-0.0372,-0.0374,-0.0375,0,0,0,0,0,0,0,0,0,0,0,0,0,-0.0206,-0.0205,-0.0202,-0.0202,-0.0202,-0.0237,-0.0237,-0.0238,-0.0285,-0.0286,-0.0287,-0.0288,-0.0372,-0.0374,-0.0375,0,0,0,0,0,0,0,0,0,0,0,0,0,-0.022,-0.0205,-0.0202,-0.023,-0.0232,-0.0237,-0.0237,-0.0238,-0.0285,-0.0286,-0.0287,-0.0288,-0.0371,-0.0373,-0.0376,-0.0369,0,0,-0.0383,-0.0384,0,0,0,0,0,0,0,0,-0.0219,-0.0219,-0.0225,-0.0228,-0.0231,-0.0257,-0.027,-0.0284,-0.0285,-0.0266,-0.0288,-0.0289,-0.0337,-0.0342,-0.0347,-0.0373,-0.0376,-0.0383,-0.0385,-0.0386,-0.0386,0,0,0,0,0,0,0,-0.0218,-0.0218,-0.0217,-0.0225,-0.0229,-0.0251,-0.0254,-0.0273,-0.0297,-0.0268,-0.0271,-0.0273,-0.0339,-0.0344,-0.0349,-0.0377,-0.0383,-0.0385,-0.0387,-0.0388,-0.0375,-0.0374,0,0,0,0,0,0,-0.0209,-0.0217,-0.0215,-0.0217,-0.0226,-0.0249,-0.0253,-0.0248,-0.0295,-0.0303,-0.0272,-0.0275,-0.034,-0.0346,-0.0353,-0.0323,-0.0386,-0.0388,-0.0389,-0.0377,-0.0375,-0.0373,0,0,0,0,0,0,-0.0208,-0.0208,-0.0214,-0.0218,-0.022,-0.0248,-0.0243,-0.0248,-0.0256,-0.0298,-0.0307,-0.0274,-0.0341,-0.0349,-0.0355,-0.0328,-0.0389,-0.0391,-0.0379,-0.0376,-0.0374,-0.0279,0,0,0,0,0,0,-0.0208,-0.0207,-0.02,-0.0217,-0.022,-0.0209,-0.0242,-0.0248,-0.0255,-0.0259,-0.0302,-0.0311,-0.0342,-0.0351,-0.0357,-0.0332,-0.0393,-0.0381,-0.0378,-0.0375,-0.0284,-0.0274,-0.0264,0,0,0,0,0,-0.0208,-0.0187,-0.0199,-0.0199,-0.0209,-0.0209,-0.0211,-0.0236,-0.0254,-0.0249,-0.0271,-0.031,-0.0335,-0.0351,-0.0359,-0.0334,-0.0383,-0.0379,-0.0375,-0.0289,-0.0276,-0.0265,0,0,0,0,0,0,-0.0176,-0.019,-0.0204,-0.0186,-0.0196,-0.0216,-0.0211,-0.0229,-0.0243,-0.0246,-0.0291,-0.03,-0.0293,-0.0323,-0.034,-0.0319,-0.0364,-0.0361,-0.0295,-0.0283,-0.0274,-0.0216,-0.0395,0,0,0,0,0,-0.0167,-0.016,-0.0176,-0.0161,-0.0164,-0.0188,-0.0191,-0.0205,-0.022,-0.0227,-0.0253,-0.0274,-0.0281,-0.0291,-0.0305,-0.0296,-0.0276,-0.0283,-0.0273,-0.0265,-0.0221,-0.0137,-0.0114,-0.036,-0.036,-0.036,0,0,-0.0149,-0.0156,-0.0152,-0.0156,-0.0165,-0.0149,-0.0192,-0.0188,-0.0171,-0.0234,-0.0216,-0.0241,-0.027,-0.0255,-0.0255,-0.028,-0.0193,-0.026,-0.0252,-0.0213,-0.013,-0.0106,-0.0084,-0.0358,-0.0358,-0.0358,0,0,-0.0101,-0.0117,-0.0092,-0.01,-0.0109,-0.0119,-0.0115,-0.0129,-0.0134,-0.0123,-0.0154,-0.0146,-0.0179,-0.0173,-0.018,-0.0119,-0.014,-0.0143,-0.0049,0.0032,0.0054,0.0074,0.0092,0.0113,-0.014,-0.014,-0.014,0,-0.0077,-0.0047,-0.0084,-0.0064,-0.0053,-0.0099,-0.0061,-0.0072,-0.0083,-0.0056,-0.0106,-0.0077,-0.0126,-0.0064,-0.0057,-0.0092,-0.0069,-0.0097,0.0049,0.0069,0.0087,0.0102,0.0124,-0.0135,-0.0136,-0.0136,-0.0137,0,-0.001,0.001,0.0025,0.0037,0.0039,0.0064,0.0045,0.006,0.0045,0.0048,0.01,0.0059,0.0093,0.0058,0.0008,0.0115,0.0078,0.0054,0.0023,0.0119,0.0126,0.0148,-0.0128,-0.013,-0.0131,-0.0132,0,0,0.0067,0.0075,0.0081,0.012,0.0099,0.0129,0.0151,0.0195,0.027,0.0231,0.0343,0.0293,0.0292,0.0287,0.0239,0.028,0.0383,0.0221,0.0223,0.0249,0.0532,0.043,0.0442,0.039,0.0395,0.0399,0.0471,0,0.0141,0.022,0.0188,0.0274,0.0326,0.0288,0.0336,0.0361,0.0378,0.0469,0.044,0.0512,0.0371,0.0413,0.0431,0.0422,0.045,0.0364,0.043,0.0431,0.0339,0.0469,0.0417,0.0473,0.0492,0.0495,0.0498,0,0.0235,0.0278,0.038,0.0446,0.0466,0.0508,0.0616,0.0649,0.0721,0.0743,0.0791,0.0773,0.0824,0.0703,0.0736,0.069,0.0627,0.0589,0.0591,0.0492,0.0372,0.0388,0.051,0.0237,0.053,0.0527,0.0525,0,0.037,0.0423,0.0525,0.0539,0.0596,0.0656,0.0692,0.0759,0.0836,0.0949,0.1038,0.1063,0.1125,0.1074,0.0933,0.0872,0.0967,0.0877,0.0718,0.0707,0.0678,0.0656,0.0563,0.0926,0.0926,0.0926,0.0926,0,0.0493,0.0582,0.0608,0.0674,0.0817,0.0804,0.0973,0.1008,0.1117,0.1256,0.121,0.1334,0.1231,0.1231,0.1072,0.0966,0.1078,0.0784,0.0753,0.0699,0.068,0.0449,0.0314,0.0929,0.0928,0.0928,0.0927,0,0.066,0.0666,0.0795,0.0865,0.0896,0.1011,0.1123,0.1242,0.1321,0.1513,0.1563,0.1601,0.1598,0.144,0.1376,0.1166,0.0912,0.0978,0.088,0.0836,0.0399,0.0273,0.0225,0.0112,0.0847,0.0846,0.0844,0,0.077,0.0849,0.0944,0.1006,0.1048,0.1187,0.1278,0.1354,0.1476,0.1668,0.178,0.1836,0.188,0.1714,0.1388,0.1133,0.0894,0.0876,0.0743,0.0411,0.025,0.0167,0.0069,0.0725,0.0723,0.0721,0.0719,0,0.0955,0.0978,0.1052,0.1173,0.1275,0.1407,0.1541,0.1666,0.1779,0.1938,0.2121,0.2183,0.2005,0.1752,0.1368,0.1139,0.0672,0.0827,0.056,0.0227,0.0068,-0.007,0.0582,0.0703,0.0705,0.0706,0.0707,0.0708,0.1068,0.1137,0.1192,0.1318,0.1429,0.1585,0.1717,0.1862,0.2066,0.2293,0.2343,0.2471,0.2049,0.1528,0.1188,0.048,0.0538,0.025,0.0149,0.0112,-0.0061,0.0513,0.054,0.0541,0.0541,0.0542,0.0542,0,0.1152,0.1195,0.1317,0.1441,0.1576,0.1626,0.1849,0.1987,0.2217,0.2441,0.2595,0.2463,0.1895,0.1312,0.039,-0.0105,-0.0271,-0.0369,-0.0496,-0.0545,0.0039,-0.0041,-0.0229,-0.0228,-0.0228,-0.0228,-0.0228,-0.0227,0.1181,0.1266,0.1317,0.1517,0.1625,0.182,0.1952,0.2166,0.2363,0.2613,0.2721,0.2788,0.2303,0.0662,-0.0488,-0.0746,-0.1064,-0.1116,-0.1255,-0.0906,-0.0857,-0.081,-0.0918,-0.1287,-0.1288,-0.1806,-0.1811,-0.1816]}],[{"header":{"parameterUnit":"m.s-1","parameterCategory":2,"la1":30.2991,"la2":30.254,"lo1":-89.0895,"lo2":-89.0444,"dy":0.0017,"dx":0.0017,"nx":28,"ny":28,"refTime":"2024-08-26T21:00:00:Z","depth":"2","parameterNumber":2,"parameterNumberName":"U-component_of_CURRENTS"},"data":[0,0,0,0,0,0,0,0,0,0,0,0,0,0,0,0,0,0,0,0,0,0,0,0,0,0,0,0,0,0,0,0,0,0,0,0,0,0,0,0,0,0,0,0,0,0,0,0,0,0,0,0,0,0,0,0,0,0,0.239,0.2391,0,0.2438,0.2438,0.2438,0.2414,0.2414,0.2413,0.2413,0.2432,0.2433,0.2434,0,0,0,0,0,0,0,0,0,0,0,0,0,0.2304,0.2305,0.239,0.2391,0.2393,0.2438,0.2438,0.2438,0.2414,0.2414,0.2413,0.2412,0.2431,0.2433,0.2434,0,0,0,0,0,0,0,0,0,0,0,0,0,0.2338,0.2305,0.239,0.2392,0.2393,0.2438,0.2438,0.2438,0.2415,0.2414,0.2413,0.2412,0.2431,0.2433,0.2434,0.2461,0,0,0.2439,0.244,0,0,0,0,0,0,0,0,0.2336,0.2341,0.239,0.2392,0.2393,0.2426,0.2415,0.2447,0.2415,0.2398,0.2413,0.2412,0.2433,0.2434,0.2435,0.2462,0.2463,0.2439,0.244,0.2441,0.2441,0,0,0,0,0,0,0,0.2334,0.2339,0.2402,0.2392,0.2394,0.24,0.2403,0.2421,0.2414,0.24,0.24,0.2418,0.2432,0.2433,0.2435,0.2463,0.2439,0.244,0.2441,0.2442,0.2551,0.2553,0,0,0,0,0,0,0.2343,0.2336,0.24,0.2404,0.237,0.2402,0.2405,0.241,0.2414,0.2416,0.2418,0.2416,0.2431,0.2433,0.2436,0.2489,0.2441,0.2442,0.2443,0.2549,0.2551,0.2553,0,0,0,0,0,0,0.234,0.2347,0.2398,0.2378,0.2385,0.2405,0.2411,0.2412,0.2426,0.243,0.2429,0.2434,0.2431,0.2434,0.245,0.2489,0.2443,0.2444,0.2546,0.2549,0.2552,0.2582,0,0,0,0,0,0,0.2337,0.2346,0.2353,0.2378,0.2387,0.2421,0.2413,0.2414,0.2441,0.2439,0.2443,0.2443,0.243,0.2447,0.2451,0.249,0.2446,0.2544,0.2548,0.2551,0.2579,0.2586,0.2592,0,0,0,0,0,0.2334,0.2343,0.2352,0.2361,0.2396,0.2422,0.2426,0.2433,0.2443,0.2444,0.2448,0.2444,0.2474,0.2449,0.2454,0.2494,0.2542,0.2547,0.2551,0.2576,0.2584,0.2592,0,0,0,0,0,0,0.2303,0.2343,0.2353,0.2372,0.2398,0.2421,0.2434,0.2449,0.2455,0.2461,0.2455,0.2455,0.2493,0.2492,0.2465,0.254,0.2514,0.252,0.2532,0.254,0.2547,0.2569,0.2447,0,0,0,0,0,0.2305,0.2325,0.2359,0.2377,0.2392,0.242,0.2437,0.2449,0.2464,0.2467,0.2471,0.2489,0.2516,0.2522,0.254,0.2572,0.2596,0.2607,0.2614,0.2619,0.2643,0.2717,0.2732,0.2568,0.2568,0.2567,0,0,0.2299,0.2327,0.2337,0.2373,0.2395,0.2424,0.2425,0.246,0.2486,0.2471,0.2498,0.2513,0.2532,0.2564,0.2583,0.2564,0.2674,0.2624,0.2628,0.265,0.2723,0.2739,0.2753,0.2571,0.257,0.257,0,0,0.23,0.2323,0.2339,0.2367,0.2416,0.2438,0.2455,0.2489,0.25,0.2538,0.254,0.2572,0.2606,0.2618,0.2634,0.2693,0.2711,0.2712,0.2754,0.2825,0.2839,0.2852,0.2878,0.2893,0.2707,0.2708,0.2708,0,0.2291,0.2324,0.2348,0.2378,0.2411,0.2448,0.2481,0.2502,0.2536,0.2569,0.2553,0.2641,0.2637,0.27,0.2712,0.2708,0.2744,0.2715,0.2833,0.2847,0.286,0.2883,0.2899,0.271,0.2709,0.2709,0.2709,0,0.2306,0.2341,0.2358,0.2409,0.244,0.2479,0.2522,0.2551,0.2587,0.2629,0.2705,0.2704,0.2762,0.2766,0.2753,0.2848,0.2842,0.2836,0.2809,0.2878,0.2898,0.2914,0.2712,0.2712,0.2711,0.2711,0,0,0.2268,0.2351,0.2359,0.2398,0.2469,0.2497,0.2548,0.2619,0.2694,0.2719,0.2812,0.2836,0.2867,0.2888,0.2883,0.2928,0.3017,0.2923,0.2926,0.2942,0.3162,0.309,0.31,0.3044,0.3047,0.305,0.313,0,0.2278,0.2345,0.2381,0.245,0.2495,0.2545,0.2607,0.2679,0.2748,0.2842,0.2873,0.2979,0.2906,0.2968,0.2988,0.3047,0.3068,0.2995,0.3101,0.3104,0.3027,0.312,0.2878,0.2925,0.3146,0.3148,0.315,0,0.2287,0.2339,0.2409,0.251,0.2534,0.2579,0.2704,0.2769,0.2904,0.2968,0.3052,0.3117,0.3197,0.3134,0.322,0.3188,0.3174,0.3185,0.3189,0.313,0.3065,0.29,0.2946,0.3177,0.3175,0.3173,0.3171,0,0.2265,0.2359,0.2423,0.2455,0.257,0.2611,0.268,0.2818,0.2899,0.3085,0.318,0.3282,0.3364,0.3386,0.3374,0.3342,0.3458,0.3414,0.3315,0.3308,0.3128,0.3099,0.3461,0.3461,0.3461,0.3461,0.3461,0,0.2259,0.2316,0.2426,0.2451,0.2556,0.2637,0.277,0.2851,0.3008,0.3126,0.3254,0.3345,0.3444,0.3503,0.3457,0.3439,0.3519,0.3354,0.3346,0.3127,0.3099,0.3339,0.3324,0.3464,0.3463,0.3463,0.3462,0,0.2235,0.2297,0.2386,0.2504,0.2544,0.2629,0.2784,0.2874,0.3047,0.3197,0.3277,0.3449,0.3568,0.3598,0.3668,0.3556,0.3552,0.3498,0.3215,0.3173,0.3329,0.3314,0.345,0.3448,0.3447,0.3446,0.3446,0,0.2234,0.229,0.2411,0.2467,0.2519,0.2653,0.2727,0.2873,0.2957,0.3222,0.3261,0.3482,0.3537,0.3612,0.3565,0.3524,0.3542,0.3234,0.3123,0.3361,0.3339,0.3326,0.3314,0.2879,0.2874,0.2869,0.2866,0,0.2267,0.2322,0.2393,0.2481,0.2545,0.2637,0.2739,0.2786,0.2968,0.3063,0.3188,0.3283,0.3428,0.3325,0.333,0.3249,0.3241,0.3143,0.3508,0.292,0.283,0.2806,0.2811,0.2827,0.2831,0.2833,0.2836,0.2837,0.2313,0.2352,0.2428,0.2494,0.259,0.2604,0.262,0.269,0.2751,0.2827,0.2969,0.299,0.3076,0.2983,0.2888,0.2855,0.3053,0.2882,0.2893,0.2909,0.283,0.2743,0.2706,0.2709,0.2712,0.2714,0.2716,0,0.2328,0.2341,0.2423,0.2477,0.2517,0.257,0.2615,0.2553,0.2524,0.2598,0.2627,0.2422,0.2396,0.2504,0.2401,0.239,0.2337,0.229,0.2197,0.224,0.2277,0.2162,0.1863,0.1859,0.1857,0.1854,0,0,0.2313,0.2328,0.2313,0.2341,0.241,0.2386,0.2358,0.2268,0.2276,0.2132,0.2109,0.2245,0.2414,0.2079,0.2062,0.1956,0.2073,0.1884,0.2578,0.2513,0.2546,0.2642,0.2517,0,0,0,0,0]},{"header":{"parameterUnit":"m.s-1","parameterCategory":2,"la1":30.2991,"la2":30.254,"lo1":-89.0895,"lo2":-89.0444,"dy":0.0017,"dx":0.0017,"nx":28,"ny":28,"refTime":"2024-08-26T21:00:00:Z","depth":"2","parameterNumber":3,"parameterNumberName":"V-component_of_CURRENTS"},"data":[0,0,0,0,0,0,0,0,0,0,0,0,0,0,0,0,0,0,0,0,0,0,0,0,0,0,0,0,0,0,0,0,0,0,0,0,0,0,0,0,0,0,0,0,0,0,0,0,0,0,0,0,0,0,0,0,0,0,-0.0054,-0.0055,0,-0.0107,-0.0107,-0.0108,-0.0132,-0.0132,-0.0132,-0.0132,-0.0203,-0.0205,-0.0206,0,0,0,0,0,0,0,0,0,0,0,0,0,-0.0032,-0.0031,-0.0054,-0.0055,-0.0056,-0.0107,-0.0107,-0.0108,-0.0132,-0.0132,-0.0132,-0.0132,-0.0202,-0.0204,-0.0207,0,0,0,0,0,0,0,0,0,0,0,0,0,-0.0057,-0.0031,-0.0054,-0.0075,-0.0077,-0.0107,-0.0107,-0.0108,-0.0132,-0.0132,-0.0132,-0.0133,-0.0202,-0.0204,-0.0207,-0.0222,0,0,-0.0215,-0.0216,0,0,0,0,0,0,0,0,-0.0056,-0.0058,-0.0071,-0.0073,-0.0076,-0.0114,-0.0125,-0.0147,-0.0132,-0.011,-0.0132,-0.0133,-0.0176,-0.018,-0.0188,-0.0225,-0.0228,-0.0215,-0.0217,-0.0218,-0.0219,0,0,0,0,0,0,0,-0.0054,-0.0056,-0.0074,-0.0072,-0.0075,-0.0101,-0.0104,-0.013,-0.0141,-0.0112,-0.0114,-0.0122,-0.0177,-0.0185,-0.019,-0.0229,-0.0215,-0.0218,-0.0219,-0.0221,-0.0275,-0.0274,0,0,0,0,0,0,-0.0047,-0.0054,-0.0072,-0.0075,-0.0067,-0.0101,-0.0105,-0.0101,-0.014,-0.0147,-0.0122,-0.0123,-0.0181,-0.0187,-0.0193,-0.0194,-0.0218,-0.0221,-0.0222,-0.0275,-0.0275,-0.0274,0,0,0,0,0,0,-0.0046,-0.0047,-0.007,-0.0068,-0.0073,-0.0101,-0.0097,-0.0102,-0.0111,-0.0148,-0.0154,-0.0126,-0.0181,-0.0189,-0.0202,-0.0198,-0.0222,-0.0224,-0.0275,-0.0275,-0.0275,-0.0209,0,0,0,0,0,0,-0.0044,-0.0046,-0.0041,-0.0067,-0.0072,-0.0075,-0.0097,-0.0103,-0.0116,-0.0118,-0.0154,-0.016,-0.0182,-0.0198,-0.0205,-0.0202,-0.0227,-0.0275,-0.0275,-0.0275,-0.0212,-0.0207,-0.0203,0,0,0,0,0,-0.0043,-0.0029,-0.004,-0.0043,-0.0064,-0.0074,-0.0079,-0.01,-0.0116,-0.011,-0.0133,-0.0159,-0.0201,-0.0199,-0.0208,-0.0206,-0.0275,-0.0275,-0.0275,-0.0214,-0.0208,-0.0203,0,0,0,0,0,0,-0.0014,-0.0031,-0.0044,-0.0035,-0.005,-0.0078,-0.0078,-0.0098,-0.0113,-0.0118,-0.0153,-0.016,-0.0172,-0.0198,-0.0196,-0.0222,-0.0245,-0.0246,-0.0196,-0.019,-0.0186,-0.0174,-0.0229,0,0,0,0,0,-0.0007,-0.0002,-0.0024,-0.0018,-0.0023,-0.0053,-0.0062,-0.0077,-0.0096,-0.0103,-0.0129,-0.0157,-0.0178,-0.019,-0.0213,-0.0225,-0.0258,-0.0231,-0.0227,-0.0223,-0.0219,-0.0248,-0.0246,-0.0273,-0.0273,-0.0273,0,0,0.0004,-0.0005,-0.0004,-0.0013,-0.0028,-0.0023,-0.0057,-0.0065,-0.0064,-0.011,-0.0112,-0.0143,-0.0178,-0.0187,-0.0196,-0.0207,-0.0237,-0.0222,-0.0218,-0.0217,-0.0247,-0.0245,-0.0242,-0.0273,-0.0273,-0.0273,0,0,0.0031,0.0022,0.0036,0.003,0.0012,-0.0003,-0.0004,-0.0029,-0.004,-0.005,-0.0082,-0.0106,-0.0139,-0.016,-0.0177,-0.0164,-0.0211,-0.0176,-0.0142,-0.017,-0.0168,-0.0167,-0.022,-0.0224,-0.0173,-0.0173,-0.0173,0,0.0043,0.0061,0.0038,0.0052,0.0052,0.001,0.0028,0.0011,-0.0016,-0.0024,-0.0041,-0.0093,-0.0126,-0.014,-0.0134,-0.0154,-0.0184,-0.0157,-0.0163,-0.0162,-0.0162,-0.0217,-0.0222,-0.017,-0.017,-0.017,-0.0171,0,0.0084,0.0096,0.0105,0.011,0.0108,0.0116,0.0092,0.0083,0.0058,0.0034,0.0011,-0.0032,-0.0064,-0.008,-0.0103,-0.0116,-0.0144,-0.0153,-0.0173,-0.0155,-0.0215,-0.0221,-0.0165,-0.0166,-0.0167,-0.0168,0,0,0.012,0.0133,0.0136,0.0149,0.0141,0.0144,0.0148,0.0139,0.0135,0.0099,0.0093,0.0048,0.0011,-0.001,-0.0049,-0.0075,-0.0106,-0.0106,-0.0109,-0.0153,-0.0185,-0.0199,-0.0208,-0.0109,-0.011,-0.011,-0.0234,0,0.0159,0.0199,0.0196,0.0231,0.0248,0.0222,0.023,0.021,0.0183,0.0165,0.0109,0.0087,0.0042,0.0025,-0.0007,-0.0071,-0.0117,-0.0073,-0.0203,-0.0207,-0.0215,-0.0213,-0.0165,-0.027,-0.0241,-0.0242,-0.0242,0,0.0201,0.0223,0.0268,0.0287,0.0293,0.0306,0.0306,0.0305,0.0266,0.0243,0.0205,0.0159,0.0114,0.0071,-0.0036,-0.0002,-0.0093,-0.0153,-0.0159,-0.0196,-0.0231,-0.0282,-0.0283,-0.0253,-0.0253,-0.0252,-0.0251,0,0.0228,0.0272,0.031,0.0319,0.0334,0.0346,0.0349,0.0324,0.033,0.0289,0.0283,0.0217,0.018,0.0087,-0.0039,-0.0035,-0.0166,-0.0181,-0.0291,-0.0295,-0.0293,-0.0295,-0.0277,-0.0277,-0.0277,-0.0276,-0.0276,0,0.0261,0.0284,0.0327,0.0341,0.038,0.038,0.0404,0.0388,0.0385,0.0408,0.0323,0.0332,0.0185,0.0096,-0.0021,-0.017,-0.016,-0.0289,-0.0321,-0.0271,-0.027,-0.028,-0.0279,-0.0281,-0.028,-0.0279,-0.0278,0,0.0251,0.0285,0.0325,0.0368,0.0386,0.0404,0.0442,0.0469,0.0449,0.0478,0.0474,0.0408,0.0312,0.0142,-0.0023,-0.0151,-0.0288,-0.0357,-0.0302,-0.0324,-0.0411,-0.0405,-0.0486,-0.0487,-0.0489,-0.049,-0.049,0,0.024,0.0264,0.0336,0.0369,0.0385,0.0424,0.0466,0.0488,0.0538,0.0548,0.0586,0.0488,0.0467,0.0197,-0.0036,-0.0269,-0.0307,-0.0418,-0.0402,-0.0406,-0.0429,-0.0421,-0.0414,-0.0391,-0.0391,-0.0391,-0.0391,0,0.0208,0.024,0.0272,0.0366,0.0425,0.0494,0.0565,0.0629,0.0681,0.0735,0.0811,0.0796,0.0526,0.0327,-0.004,-0.0193,-0.0367,-0.0425,-0.044,-0.0334,-0.0323,-0.0343,-0.0338,-0.039,-0.039,-0.039,-0.039,-0.039,0.0178,0.0213,0.0293,0.038,0.0438,0.0572,0.0665,0.0783,0.0913,0.1022,0.099,0.0983,0.0677,0.0266,-0.003,-0.0357,-0.0352,-0.0465,-0.0463,-0.0461,-0.0416,-0.0406,-0.0483,-0.0483,-0.0484,-0.0484,-0.0485,0,0.0188,0.0257,0.0322,0.0453,0.0541,0.0577,0.0746,0.0882,0.1089,0.1159,0.1226,0.0978,0.0714,0.037,-0.0098,-0.0394,-0.0409,-0.0489,-0.0434,-0.0433,-0.0432,-0.0383,-0.0444,-0.0444,-0.0445,-0.0445,0,0,0.0211,0.0298,0.037,0.0546,0.0624,0.0791,0.0909,0.1097,0.1207,0.1326,0.1322,0.1233,0.0827,0.0496,0.0097,-0.0163,-0.023,-0.022,-0.0221,-0.0106,-0.0102,-0.0388,-0.0308,0,0,0,0,0]}],[{"header":{"parameterUnit":"m.s-1","parameterCategory":2,"la1":30.2991,"la2":30.254,"lo1":-89.0895,"lo2":-89.0444,"dy":0.0017,"dx":0.0017,"nx":28,"ny":28,"refTime":"2024-08-26T21:00:00:Z","depth":"4","parameterNumber":2,"parameterNumberName":"U-component_of_CURRENTS"},"data":[0,0,0,0,0,0,0,0,0,0,0,0,0,0,0,0,0,0,0,0,0,0,0,0,0,0,0,0,0,0,0,0,0,0,0,0,0,0,0,0,0,0,0,0,0,0,0,0,0,0,0,0,0,0,0,0,0,0,0.1267,0.1268,0,0.1322,0.1323,0.1323,0.1367,0.1367,0.1368,0.1368,0.1445,0.1447,0.1448,0,0,0,0,0,0,0,0,0,0,0,0,0,0.1206,0.1207,0.1267,0.1268,0.1269,0.1322,0.1323,0.1323,0.1367,0.1367,0.1368,0.1369,0.1445,0.1447,0.1448,0,0,0,0,0,0,0,0,0,0,0,0,0,0.1242,0.1207,0.1267,0.1298,0.1301,0.1322,0.1323,0.1323,0.1367,0.1367,0.1368,0.1369,0.1444,0.1446,0.1449,0.1446,0,0,0.1456,0.1457,0,0,0,0,0,0,0,0,0.124,0.1244,0.1293,0.1296,0.13,0.134,0.1329,0.1366,0.1366,0.134,0.1368,0.1369,0.1412,0.1417,0.1423,0.1449,0.1452,0.1456,0.1457,0.1458,0.1459,0,0,0,0,0,0,0,0.1238,0.1242,0.1287,0.1293,0.1298,0.1311,0.1317,0.1336,0.137,0.1343,0.1346,0.1354,0.1414,0.1421,0.1426,0.1454,0.1456,0.1458,0.1459,0.146,0.157,0.1572,0,0,0,0,0,0,0.1233,0.124,0.1286,0.1289,0.1273,0.1312,0.1318,0.1325,0.137,0.1377,0.1354,0.1356,0.1417,0.1423,0.1428,0.152,0.1458,0.146,0.1462,0.1569,0.1571,0.1572,0,0,0,0,0,0,0.1231,0.1236,0.1283,0.1267,0.1274,0.1312,0.1319,0.1325,0.1366,0.1378,0.1386,0.1392,0.1418,0.1425,0.1478,0.1519,0.1461,0.1463,0.1567,0.1569,0.1572,0.1643,0,0,0,0,0,0,0.1229,0.1235,0.1252,0.1267,0.1275,0.1316,0.1318,0.1326,0.1368,0.1373,0.1413,0.1419,0.1419,0.1474,0.148,0.1522,0.1465,0.1565,0.1568,0.1571,0.1638,0.1647,0.1655,0,0,0,0,0,0.1227,0.1242,0.1252,0.1259,0.1292,0.1317,0.1323,0.1351,0.137,0.1391,0.1423,0.1419,0.1497,0.1478,0.1484,0.1527,0.1564,0.1567,0.1571,0.1635,0.1646,0.1655,0,0,0,0,0,0,0.1225,0.1248,0.126,0.1283,0.1308,0.1325,0.1351,0.137,0.1412,0.1427,0.144,0.1448,0.1512,0.1506,0.1485,0.1566,0.1529,0.1534,0.1576,0.1586,0.1594,0.1592,0.1467,0,0,0,0,0,0.1231,0.1251,0.1272,0.1295,0.131,0.1338,0.1358,0.1378,0.1408,0.1429,0.1459,0.1491,0.1524,0.1546,0.1571,0.1613,0.1613,0.1644,0.1653,0.166,0.1662,0.1696,0.1707,0.1584,0.1584,0.1584,0,0,0.1237,0.1254,0.1266,0.1297,0.132,0.1347,0.1353,0.1393,0.1427,0.143,0.1499,0.1526,0.1543,0.1596,0.1623,0.1601,0.1698,0.1664,0.167,0.1668,0.1701,0.1713,0.1723,0.1586,0.1586,0.1586,0,0,0.1249,0.1275,0.1294,0.1317,0.1358,0.1375,0.1395,0.1435,0.1469,0.1526,0.1544,0.1596,0.1644,0.1666,0.1681,0.1747,0.1743,0.1762,0.1801,0.1835,0.1845,0.1854,0.188,0.1891,0.1762,0.1762,0.1762,0,0.1258,0.128,0.1305,0.133,0.1355,0.1393,0.142,0.1458,0.1514,0.1548,0.1559,0.1655,0.1675,0.1737,0.1764,0.1767,0.1783,0.1763,0.1846,0.1854,0.1862,0.1887,0.1898,0.1766,0.1766,0.1765,0.1765,0,0.1275,0.1305,0.1321,0.1364,0.1395,0.1428,0.1474,0.1523,0.1573,0.1609,0.1698,0.1732,0.1787,0.1806,0.1809,0.1882,0.1875,0.1856,0.182,0.1879,0.1901,0.1911,0.1772,0.177,0.1769,0.1768,0,0,0.126,0.1321,0.133,0.1354,0.1417,0.1441,0.1508,0.157,0.1622,0.1694,0.1762,0.1834,0.1868,0.1886,0.1907,0.1936,0.2014,0.1928,0.1928,0.1952,0.2096,0.1975,0.1974,0.2016,0.2018,0.202,0.2092,0,0.1268,0.1312,0.1346,0.1399,0.1424,0.1481,0.1538,0.1605,0.1671,0.1748,0.181,0.1889,0.1895,0.194,0.1975,0.2006,0.2043,0.1996,0.2035,0.2036,0.192,0.1982,0.2026,0.2099,0.2102,0.2103,0.2105,0,0.1266,0.1298,0.1343,0.1414,0.1434,0.1479,0.1573,0.1634,0.1743,0.1798,0.1885,0.194,0.2027,0.2013,0.2102,0.2077,0.2098,0.211,0.2113,0.1979,0.1933,0.2025,0.2122,0.2121,0.212,0.2118,0.2117,0,0.1221,0.1296,0.1332,0.1355,0.1441,0.1487,0.1553,0.1656,0.1714,0.1848,0.1902,0.2006,0.2074,0.2119,0.2164,0.2148,0.2238,0.2211,0.2123,0.2115,0.2169,0.2158,0.227,0.227,0.2269,0.2269,0.2269,0,0.1193,0.1223,0.1322,0.1334,0.1397,0.1479,0.1561,0.1637,0.1752,0.1822,0.1938,0.2001,0.2107,0.217,0.2191,0.2189,0.2267,0.214,0.2128,0.2199,0.2191,0.2177,0.2165,0.2272,0.2271,0.2271,0.227,0,0.111,0.1179,0.1221,0.1326,0.1369,0.1418,0.1553,0.1608,0.1735,0.1828,0.188,0.2024,0.2114,0.2186,0.2265,0.2212,0.2226,0.2205,0.2289,0.2279,0.2074,0.2066,0.2111,0.2107,0.2104,0.2101,0.2099,0,0.1059,0.1072,0.1193,0.1229,0.1278,0.1375,0.1436,0.1582,0.1641,0.1823,0.1854,0.1999,0.2079,0.2093,0.218,0.2213,0.219,0.2178,0.2113,0.2076,0.206,0.2056,0.2052,0.2094,0.2094,0.2093,0.2092,0,0.0942,0.1002,0.104,0.1129,0.1201,0.1266,0.1375,0.141,0.1579,0.1707,0.1792,0.1859,0.1954,0.2024,0.2066,0.2084,0.2172,0.2146,0.2151,0.209,0.2057,0.2043,0.2043,0.2081,0.2083,0.2084,0.2085,0,0.0855,0.0865,0.0941,0.1021,0.1091,0.1136,0.1212,0.1303,0.1386,0.16,0.163,0.1788,0.1932,0.1959,0.1998,0.2008,0.198,0.1907,0.1925,0.1938,0.1848,0.1778,0.1715,0,0,0,0,0,0.0765,0.079,0.0836,0.091,0.097,0.1035,0.1155,0.1241,0.1419,0.1435,0.1529,0.1617,0.1704,0.1796,0.1773,0.1921,0.1977,0.1886,0.1898,0.2023,0.2035,0.1946,0,0,0,0,0,0,0.0715,0.0743,0.0798,0.0798,0.084,0.0898,0.0981,0.1101,0.1129,0.1318,0.1378,0.1519,0.1629,0.17,0.1742,0.1767,0.1741,0.1993,0.1989,0.2016,0.2027,0.2037,0.195,0,0,0,0,0]},{"header":{"parameterUnit":"m.s-1","parameterCategory":2,"la1":30.2991,"la2":30.254,"lo1":-89.0895,"lo2":-89.0444,"dy":0.0017,"dx":0.0017,"nx":28,"ny":28,"refTime":"2024-08-26T21:00:00:Z","depth":"4","parameterNumber":3,"parameterNumberName":"V-component_of_CURRENTS"},"data":[0,0,0,0,0,0,0,0,0,0,0,0,0,0,0,0,0,0,0,0,0,0,0,0,0,0,0,0,0,0,0,0,0,0,0,0,0,0,0,0,0,0,0,0,0,0,0,0,0,0,0,0,0,0,0,0,0,0,0.0076,0.0075,0,0.004,0.004,0.0039,0.002,0.002,0.002,0.002,-0.0034,-0.0035,-0.0036,0,0,0,0,0,0,0,0,0,0,0,0,0,0.0092,0.0092,0.0076,0.0075,0.0075,0.004,0.004,0.0039,0.002,0.002,0.002,0.002,-0.0033,-0.0035,-0.0036,0,0,0,0,0,0,0,0,0,0,0,0,0,0.0073,0.0092,0.0076,0.0061,0.006,0.004,0.004,0.0039,0.002,0.002,0.002,0.002,-0.0033,-0.0035,-0.0037,-0.005,0,0,-0.0043,-0.0044,0,0,0,0,0,0,0,0,0.0074,0.0072,0.0064,0.0062,0.006,0.0035,0.0026,0.0009,0.002,0.0034,0.002,0.002,-0.0012,-0.0016,-0.0023,-0.0052,-0.0054,-0.0043,-0.0045,-0.0046,-0.0046,0,0,0,0,0,0,0,0.0075,0.0074,0.0061,0.0063,0.0061,0.0045,0.0042,0.0022,0.0011,0.0033,0.0032,0.0028,-0.0013,-0.0021,-0.0024,-0.0055,-0.0043,-0.0045,-0.0046,-0.0047,-0.0104,-0.0104,0,0,0,0,0,0,0.0083,0.0075,0.0062,0.006,0.0068,0.0045,0.0042,0.0043,0.0011,0.0007,0.0029,0.0028,-0.0017,-0.0022,-0.0026,-0.0038,-0.0046,-0.0047,-0.0049,-0.0103,-0.0104,-0.0104,0,0,0,0,0,0,0.0083,0.0082,0.0064,0.0067,0.0063,0.0045,0.0045,0.0042,0.0034,0.0008,0.0003,0.0025,-0.0017,-0.0023,-0.004,-0.004,-0.0048,-0.005,-0.0103,-0.0104,-0.0104,-0.0065,0,0,0,0,0,0,0.0084,0.0083,0.0085,0.0068,0.0064,0.0056,0.0045,0.0041,0.0033,0.0031,0.0003,-0.0002,-0.0018,-0.0037,-0.0042,-0.0043,-0.0052,-0.0103,-0.0103,-0.0104,-0.0066,-0.0064,-0.0062,0,0,0,0,0,0.0085,0.0092,0.0086,0.0084,0.0068,0.0057,0.0053,0.0039,0.0033,0.0032,0.0014,-0.0001,-0.0044,-0.0039,-0.0045,-0.0047,-0.0103,-0.0103,-0.0104,-0.0067,-0.0064,-0.0062,0,0,0,0,0,0,0.01,0.0091,0.0083,0.0087,0.0074,0.0054,0.0053,0.004,0.0025,0.0024,-0.0001,-0.0007,-0.0024,-0.0042,-0.0036,-0.0066,-0.0077,-0.0079,-0.0047,-0.0045,-0.0043,-0.0037,-0.0054,0,0,0,0,0,0.0105,0.0109,0.0093,0.0095,0.0092,0.0071,0.0065,0.0054,0.0038,0.0031,0.0012,-0.0011,-0.0032,-0.0042,-0.0063,-0.0077,-0.0109,-0.0084,-0.0082,-0.0081,-0.0082,-0.0136,-0.014,-0.0106,-0.0106,-0.0106,0,0,0.0111,0.0106,0.0108,0.0098,0.0088,0.0088,0.0068,0.0061,0.0059,0.0028,0.002,-0.0005,-0.0035,-0.005,-0.0059,-0.0063,-0.0106,-0.0081,-0.0079,-0.0081,-0.0137,-0.0141,-0.0144,-0.0106,-0.0106,-0.0106,0,0,0.0126,0.0122,0.0129,0.0124,0.0112,0.0101,0.01,0.0081,0.0071,0.0059,0.0034,0.0009,-0.0018,-0.0041,-0.0056,-0.0059,-0.0095,-0.0066,-0.005,-0.0103,-0.0106,-0.0109,-0.0146,-0.0153,-0.0063,-0.0063,-0.0063,0,0.0132,0.0142,0.0128,0.0135,0.0136,0.011,0.0119,0.0104,0.008,0.0072,0.0063,0.0009,-0.0015,-0.0041,-0.0041,-0.0054,-0.0086,-0.0053,-0.01,-0.0104,-0.0108,-0.0146,-0.0154,-0.0061,-0.0062,-0.0062,-0.0062,0,0.0152,0.0161,0.0167,0.0169,0.0166,0.0171,0.0152,0.0143,0.0128,0.0108,0.0078,0.0038,0.0006,-0.0007,-0.0023,-0.0062,-0.0075,-0.0092,-0.0103,-0.0109,-0.0148,-0.0157,-0.0059,-0.0059,-0.006,-0.006,0,0,0.0164,0.018,0.0183,0.0194,0.0189,0.0189,0.0187,0.0175,0.0172,0.0135,0.0121,0.0076,0.0045,0.0025,-0.0007,-0.0052,-0.0105,-0.008,-0.0083,-0.0111,-0.0215,-0.0191,-0.0199,-0.0132,-0.0134,-0.0135,-0.0227,0,0.0185,0.0213,0.0213,0.0238,0.025,0.0236,0.024,0.0222,0.0198,0.0176,0.0121,0.0095,0.006,0.0045,-0.0008,-0.0082,-0.0129,-0.0078,-0.021,-0.0214,-0.0188,-0.0209,-0.014,-0.0235,-0.0237,-0.0238,-0.0239,0,0.0201,0.0222,0.0255,0.0279,0.0285,0.0295,0.0296,0.0296,0.0256,0.0236,0.0189,0.0141,0.0074,0.0044,-0.0092,-0.0058,-0.0132,-0.0192,-0.0198,-0.0196,-0.0207,-0.0232,-0.0257,-0.0255,-0.0254,-0.0253,-0.0252,0,0.0214,0.0249,0.028,0.0289,0.031,0.0323,0.0334,0.0312,0.0322,0.0271,0.0263,0.0167,0.0126,0.0011,-0.0108,-0.0108,-0.0259,-0.0275,-0.0324,-0.0322,-0.0333,-0.0328,-0.0375,-0.0375,-0.0375,-0.0374,-0.0374,0,0.0231,0.0256,0.0293,0.0311,0.0356,0.0355,0.0392,0.038,0.0371,0.0385,0.0298,0.0279,0.0114,0.0012,-0.0105,-0.0238,-0.0261,-0.0326,-0.0349,-0.0312,-0.0305,-0.0339,-0.0333,-0.0378,-0.0377,-0.0376,-0.0376,0,0.0238,0.0256,0.0303,0.0347,0.0364,0.0398,0.0453,0.048,0.0455,0.0467,0.0455,0.0352,0.0219,0.0057,-0.0132,-0.0217,-0.0355,-0.0395,-0.0333,-0.035,-0.0385,-0.0377,-0.0467,-0.0467,-0.0467,-0.0467,-0.0467,0,0.0247,0.0274,0.0343,0.0385,0.0411,0.0468,0.0517,0.0524,0.0553,0.052,0.0527,0.0403,0.032,0.0077,-0.0102,-0.0332,-0.0358,-0.0428,-0.0421,-0.0384,-0.0397,-0.0389,-0.038,-0.0467,-0.0467,-0.0467,-0.0467,0,0.0284,0.0311,0.0362,0.0442,0.0504,0.0576,0.0635,0.0655,0.0664,0.0643,0.0592,0.0457,0.0308,0.0101,-0.0079,-0.0241,-0.0386,-0.0429,-0.043,-0.0424,-0.0385,-0.0396,-0.0388,-0.0467,-0.0467,-0.0467,-0.0467,0,0.0333,0.0374,0.0443,0.0509,0.0589,0.0654,0.0681,0.0716,0.0734,0.0683,0.067,0.0498,0.0391,0.0148,-0.0015,-0.0178,-0.0221,-0.0267,-0.0278,-0.028,-0.0199,-0.012,-0.0145,0,0,0,0,0,0.0386,0.0431,0.0503,0.0574,0.0652,0.0688,0.0753,0.0771,0.0765,0.0747,0.0707,0.0572,0.0322,0.0209,0.005,-0.0028,-0.0259,-0.022,-0.0319,-0.0468,-0.0468,-0.0402,0,0,0,0,0,0,0.042,0.0498,0.0513,0.0613,0.0664,0.075,0.079,0.0789,0.0773,0.074,0.0611,0.0539,0.0294,0.0412,0.0048,-0.0004,-0.0085,-0.0342,-0.0345,-0.0468,-0.0468,-0.0468,-0.04,0,0,0,0,0]}]]